Regional Weather Roundup
Issued by NWS

Home | Current Version | Previous Version | Graphics & Text | Print | Product List | Glossary On
Versions: 1 2 3 4 5 6 7 8 9 10 11 12 13 14 15 16 17 18 19 20 21 22 23 24 25 26 27 28 29 30 31 32 33 34 35 36 37 38 39 40 41 42 43 44 45 46 47 48 49 50
000
ASUS43 KOAX 282310
RWRNE

WEATHER ROUNDUP FOR NEBRASKA
NATIONAL WEATHER SERVICE OMAHA NE
600 PM CDT THU APR 28 2016

NOTES: SATELLITE DATA IS BEING USED TO AUGMENT CLOUD COVER ABOVE
       12000 FEET.
       "FAIR" INDICATES FEW OR NO CLOUDS BELOW 12,000 FEET WITH NO
       SIGNIFICANT WEATHER AND/OR OBSTRUCTIONS TO VISIBILITY.

  * THESE STATIONS DO NOT REPORT WEATHER SUCH AS RAIN...SNOW OR FOG.

NEZ001>004-019>022-054>056-290000-
NEBRASKA PANHANDLE

CITY           SKY/WX    TMP DP  RH WIND       PRES   REMARKS
SCOTTSBLUFF    RAIN      39  32  76 S8        30.05R WCI  33
ALLIANCE       CLOUDY    41  30  65 CALM      30.03R
CHADRON        CLOUDY    43  36  76 NE9       30.05R
KIMBALL        CLOUDY    37  33  86 NE7       30.02S WCI  31
SIDNEY         CLOUDY    41  34  76 NE6       30.03R
$$

NEZ057>060-069>072-079>082-290000-
SOUTHWEST NEBRASKA

CITY           SKY/WX    TMP DP  RH WIND       PRES   REMARKS
NORTH PLATTE   LGT RAIN  45  37  73 N5        30.03R
IMPERIAL       CLOUDY    46  37  71 N5        30.02R
LEXINGTON      LGT RAIN  46  41  83 N8        30.03S
MCCOOK         CLOUDY    49  38  65 NE8       30.01S
OGALLALA       CLOUDY    44  35  70 N5        30.03R
$$

NEZ005>010-023>029-035>040-094-290000-
NORTH CENTRAL NEBRASKA

CITY           SKY/WX    TMP DP  RH WIND       PRES   REMARKS
VALENTINE      CLOUDY    40  34  79 N12       30.07R WCI  33
AINSWORTH      CLOUDY    42  37  81 N10       30.05S
BROKEN BOW     CLOUDY    47  38  71 NW3       30.03R
O`NEILL        CLOUDY    43  39  85 N10       30.06R
ORD            CLOUDY    46  38  73 N8        30.02S
THEDFORD       CLOUDY    45  37  74 NE6       30.05R
$$

NEZ041-046>049-061>064-073>077-083>087-290000-
SOUTH CENTRAL NEBRASKA

CITY           SKY/WX    TMP DP  RH WIND       PRES   REMARKS
GRAND ISLAND   CLOUDY    49  40  71 N12       30.01F
AURORA         CLOUDY    49  42  74 N15       30.01F
HASTINGS       CLOUDY    49  41  74 N13       30.00F
HEBRON         CLOUDY    52  42  70 N9        30.01R
HOLDREGE       CLOUDY    48  41  76 N9        30.02R
KEARNEY *      CLOUDY    46  39  76 N13       30.02R
YORK           CLOUDY    48  41  76 N14       30.02S
$$

NEZ011>018-030>034-042>045-290000-
NORTHEAST NEBRASKA

CITY           SKY/WX    TMP DP  RH WIND       PRES   REMARKS
NORFOLK        CLOUDY    45  39  79 NW8       30.04R
ALBION         CLOUDY    45  39  79 N9        30.04S
BLAIR          CLOUDY    48  42  79 NW9       30.03R
COLUMBUS *     CLOUDY    46  36  66 NW10      30.04S
FREMONT        CLOUDY    48  41  79 NW7       30.04R
TEKAMAH        CLOUDY    47  42  83 N9        30.03R
WAYNE          CLOUDY    44  40  86 N7        30.05R
$$

NEZ050>053-065>068-078-088>093-290000-
SOUTHEAST NEBRASKA

CITY           SKY/WX    TMP DP  RH WIND       PRES   REMARKS
LINCOLN        CLOUDY    52  41  66 NW10      30.03R
OMAHA EPPLEY   CLOUDY    49  42  77 N9        30.03R
BEATRICE       CLOUDY    53  44  72 N12       30.00S
FALLS CITY     CLOUDY    53  44  71 N10       29.99R
NEBRASKA CITY  CLOUDY    51  43  73 N10G16    30.01R
PLATTSMOUTH    CLOUDY    49  42  77 NW12      30.01S
$$

NEZ044-045-051>053-067-290000-
OMAHA AREA

CITY           SKY/WX    TMP DP  RH WIND       PRES   REMARKS
OMAHA EPPLEY   CLOUDY    49  42  77 N9        30.03R
BLAIR          CLOUDY    48  42  79 NW9       30.03R
FREMONT        CLOUDY    48  41  79 NW7       30.04R
MILLARD        CLOUDY    50  42  73 N6        30.03R
OFFUTT AFB     CLOUDY    49  43  78 NW8       30.01R
PLATTSMOUTH    CLOUDY    49  42  77 NW12      30.01S
WAHOO          CLOUDY    49  42  77 N10       30.03R
$$




USA.gov is the U.S. government's official web portal to all federal, state and local government web resources and services.